| time (UTC) | temp C | wind direction | speed KPH | gust KPH | rain 1hr cm | rain 24hr cm | rain mn cm | humidity % | barometer mb |
| 20260507070250 | 12 | 290 | 0.0 | 4.8 | 0.00 | 0.64 | 0.00 | 96 | 1012.5 |
| 20260507065754 | 12 | 279 | 1.6 | 3.2 | 0.00 | 0.64 | 0.00 | 95 | 1012.5 |
| 20260507065256 | 12 | 285 | 3.2 | 4.8 | 0.00 | 0.64 | 0.00 | 96 | 1012.4 |
| 20260507064750 | 12 | 273 | 3.2 | 4.8 | 0.00 | 0.64 | 0.00 | 96 | 1012.4 |
| 20260507064253 | 12 | 288 | 3.2 | 4.8 | 0.00 | 0.64 | 0.00 | 96 | 1012.4 |
| 20260507063750 | 12 | 269 | 1.6 | 1.6 | 0.00 | 0.64 | 0.00 | 96 | 1012.4 |
| 20260507063253 | 12 | 269 | 0.0 | 1.6 | 0.00 | 0.64 | 0.00 | 96 | 1012.3 |
| 20260507062756 | 12 | 263 | 0.0 | 3.2 | 0.00 | 0.64 | 0.00 | 96 | 1012.3 |
| 20260507062253 | 12 | 254 | 1.6 | 4.8 | 0.00 | 0.64 | 0.00 | 96 | 1012.4 |
| 20260507061751 | 12 | 204 | 0.0 | 1.6 | 0.00 | 0.66 | 0.00 | 96 | 1012.3 |
| 20260507061253 | 11 | 204 | 0.0 | 3.2 | 0.00 | 0.66 | 0.00 | 96 | 1012.2 |
| 20260507060755 | 11 | 173 | 0.0 | 3.2 | 0.00 | 0.71 | 0.00 | 96 | 1012.2 |
| 20260507060256 | 11 | 174 | 0.0 | 0.0 | 0.00 | 0.74 | 0.00 | 96 | 1012.1 |
| 20260507055753 | 11 | 173 | 0.0 | 1.6 | 0.00 | 0.74 | 0.00 | 96 | 1012.1 |
| 20260507055252 | 11 | 173 | 0.0 | 3.2 | 0.00 | 0.81 | 0.00 | 96 | 1012.2 |
| 20260507054753 | 11 | 173 | 1.6 | 3.2 | 0.00 | 0.81 | 0.00 | 96 | 1012.1 |
| 20260507054253 | 11 | 277 | 0.0 | 0.0 | 0.00 | 0.81 | 0.00 | 96 | 1012.1 |
| 20260507053750 | 11 | 277 | 0.0 | 0.0 | 0.00 | 0.81 | 0.00 | 96 | 1012.1 |
| 20260507053250 | 11 | 277 | 0.0 | 0.0 | 0.00 | 0.81 | 0.00 | 96 | 1012.0 |
| 20260507052750 | 11 | 277 | 0.0 | 1.6 | 0.00 | 0.81 | 0.00 | 96 | 1012.0 |
| 20260507052250 | 11 | 277 | 0.0 | 3.2 | 0.00 | 0.81 | 0.00 | 96 | 1012.0 |
| 20260507051753 | 11 | 275 | 3.2 | 4.8 | 0.00 | 0.81 | 0.00 | 95 | 1011.9 |
| 20260507051250 | 11 | 179 | 0.0 | 1.6 | 0.00 | 0.81 | 0.00 | 96 | 1011.9 |
| 20260507050753 | 11 | 250 | 0.0 | 0.0 | 0.00 | 0.81 | 0.00 | 96 | 1011.8 |
| 20260507050253 | 11 | 250 | 0.0 | 0.0 | 0.00 | 0.81 | 0.00 | 96 | 1011.7 |
| 20260507045753 | 11 | 250 | 0.0 | 1.6 | 0.00 | 0.81 | 0.00 | 96 | 1011.7 |
| 20260507045250 | 11 | 250 | 0.0 | 3.2 | 0.00 | 0.81 | 0.00 | 96 | 1011.7 |
| 20260507044753 | 11 | 250 | 1.6 | 3.2 | 0.00 | 0.81 | 0.00 | 96 | 1011.7 |
| 20260507044256 | 11 | 126 | 0.0 | 1.6 | 0.00 | 0.81 | 0.00 | 96 | 1011.6 |
| 20260507043754 | 11 | 126 | 0.0 | 1.6 | 0.00 | 0.81 | 0.00 | 96 | 1011.6 |
| 20260507043256 | 11 | 126 | 1.6 | 4.8 | 0.00 | 0.81 | 0.00 | 95 | 1011.6 |
| 20260507042759 | 11 | 84 | 0.0 | 3.2 | 0.00 | 0.81 | 0.00 | 95 | 1011.6 |
| 20260507042250 | 11 | 87 | 1.6 | 3.2 | 0.00 | 0.81 | 0.00 | 95 | 1011.5 |
| 20260507041753 | 11 | 126 | 0.0 | 3.2 | 0.00 | 0.84 | 0.00 | 95 | 1011.5 |
| 20260507041256 | 11 | 126 | 1.6 | 3.2 | 0.00 | 0.84 | 0.00 | 96 | 1011.5 |
| 20260507040751 | 11 | 126 | 1.6 | 3.2 | 0.00 | 0.84 | 0.00 | 95 | 1011.4 |
| 20260507040254 | 11 | 126 | 0.0 | 1.6 | 0.00 | 0.84 | 0.00 | 95 | 1011.5 |
| 20260507035750 | 11 | 126 | 0.0 | 0.0 | 0.00 | 0.84 | 0.00 | 95 | 1011.5 |
| 20260507035251 | 11 | 126 | 0.0 | 1.6 | 0.00 | 0.84 | 0.00 | 95 | 1011.5 |
| 20260507034753 | 11 | 126 | 0.0 | 0.0 | 0.00 | 0.84 | 0.00 | 95 | 1011.5 |
| 20260507034253 | 11 | 126 | 0.0 | 3.2 | 0.00 | 0.84 | 0.00 | 95 | 1011.4 |
| 20260507033756 | 11 | 157 | 3.2 | 3.2 | 0.00 | 0.89 | 0.00 | 95 | 1011.4 |
| 20260507033253 | 11 | 279 | 0.0 | 3.2 | 0.00 | 0.94 | 0.00 | 95 | 1011.4 |
| 20260507032753 | 11 | 345 | 1.6 | 3.2 | 0.00 | 0.99 | 0.00 | 95 | 1011.3 |
| 20260507032250 | 11 | 355 | 1.6 | 3.2 | 0.00 | 1.07 | 0.00 | 95 | 1011.3 |
| 20260507031750 | 11 | 355 | 0.0 | 3.2 | 0.00 | 1.24 | 0.00 | 95 | 1011.3 |
| 20260507031250 | 11 | 282 | 0.0 | 1.6 | 0.00 | 1.35 | 0.00 | 95 | 1011.3 |
| 20260507030756 | 11 | 275 | 1.6 | 4.8 | 0.00 | 1.55 | 0.00 | 95 | 1011.3 |
| 20260507030254 | 11 | 111 | 0.0 | 6.4 | 0.00 | 1.65 | 0.00 | 95 | 1011.2 |
| 20260507025750 | 11 | 165 | 1.6 | 3.2 | 0.00 | 1.85 | 0.00 | 95 | 1011.3 |
| 20260507025257 | 11 | 281 | 1.6 | 1.6 | 0.00 | 1.98 | 0.00 | 95 | 1011.3 |
| 20260507024750 | 11 | 282 | 1.6 | 6.4 | 0.00 | 2.06 | 0.00 | 95 | 1011.3 |
| 20260507024250 | 11 | 142 | 1.6 | 8.0 | 0.00 | 2.16 | 0.00 | 95 | 1011.3 |
| 20260507023750 | 11 | 136 | 4.8 | 6.4 | 0.00 | 2.24 | 0.00 | 95 | 1011.2 |
| 20260507023251 | 11 | 142 | 3.2 | 3.2 | 0.00 | 2.29 | 0.00 | 95 | 1011.3 |
| 20260507022753 | 11 | 162 | 0.0 | 3.2 | 0.00 | 2.34 | 0.00 | 95 | 1011.4 |
| 20260507022256 | 11 | 162 | 0.0 | 3.2 | 0.00 | 2.41 | 0.00 | 95 | 1011.4 |
| 20260507021753 | 11 | 162 | 1.6 | 1.6 | 0.00 | 2.51 | 0.00 | 95 | 1011.4 |
| 20260507021250 | 11 | 162 | 1.6 | 3.2 | 0.00 | 2.62 | 0.00 | 95 | 1011.4 |
| 20260507020753 | 11 | 148 | 0.0 | 6.4 | 0.00 | 2.87 | 0.00 | 95 | 1011.4 |
| 20260507020253 | 11 | 244 | 0.0 | 3.2 | 0.00 | 3.02 | 0.00 | 95 | 1011.5 |
| 20260507015756 | 11 | 279 | 1.6 | 1.6 | 0.00 | 3.05 | 0.00 | 95 | 1011.4 |
| 20260507015254 | 11 | 283 | 0.0 | 1.6 | 0.00 | 3.07 | 0.00 | 95 | 1011.4 |
| 20260507014753 | 11 | 283 | 1.6 | 3.2 | 0.00 | 3.07 | 0.00 | 95 | 1011.4 |
| 20260507014253 | 11 | 283 | 3.2 | 3.2 | 0.00 | 3.10 | 0.00 | 95 | 1011.3 |
| 20260507013754 | 11 | 283 | 0.0 | 1.6 | 0.00 | 3.10 | 0.00 | 95 | 1011.3 |
| 20260507013250 | 11 | 283 | 0.0 | 3.2 | 0.00 | 3.10 | 0.00 | 95 | 1011.3 |
| 20260507012751 | 11 | 283 | 0.0 | 3.2 | 0.00 | 3.12 | 0.00 | 95 | 1011.4 |
| 20260507012256 | 11 | 283 | 0.0 | 0.0 | 0.00 | 3.15 | 0.00 | 95 | 1011.3 |
| 20260507011756 | 11 | 283 | 0.0 | 0.0 | 0.00 | 3.17 | 0.00 | 95 | 1011.4 |
| 20260507011251 | 11 | 283 | 0.0 | 1.6 | 0.00 | 3.17 | 0.00 | 95 | 1011.4 |
| 20260507010750 | 11 | 283 | 0.0 | 0.0 | 0.00 | 3.20 | 0.00 | 95 | 1011.4 |
| 20260507010253 | 11 | 283 | 0.0 | 1.6 | 0.00 | 3.23 | 0.00 | 95 | 1011.4 |
| 20260507005750 | 11 | 283 | 0.0 | 1.6 | 0.00 | 3.25 | 0.00 | 94 | 1011.4 |
| 20260507005254 | 12 | 283 | 0.0 | 1.6 | 0.00 | 3.30 | 0.00 | 94 | 1011.4 |
| 20260507004750 | 12 | 283 | 0.0 | 0.0 | 0.00 | 3.38 | 0.00 | 94 | 1011.3 |
| 20260507004250 | 12 | 283 | 0.0 | 0.0 | 0.00 | 3.61 | 0.00 | 94 | 1011.4 |
| 20260507003753 | 12 | 283 | 0.0 | 0.0 | 0.00 | 3.91 | 0.00 | 95 | 1011.4 |
| 20260507003250 | 12 | 283 | 0.0 | 1.6 | 0.00 | 3.91 | 0.00 | 94 | 1011.4 |
| 20260507002757 | 12 | 283 | 0.0 | 1.6 | 0.00 | 3.91 | 0.00 | 94 | 1011.5 |
| 20260507002250 | 12 | 283 | 0.0 | 1.6 | 0.00 | 3.91 | 0.00 | 94 | 1011.4 |
| 20260507001751 | 12 | 283 | 0.0 | 1.6 | 0.00 | 3.94 | 0.00 | 94 | 1011.4 |
| 20260507001253 | 12 | 283 | 0.0 | 1.6 | 0.00 | 3.94 | 0.00 | 94 | 1011.5 |
| 20260507000757 | 12 | 283 | 0.0 | 0.0 | 0.00 | 3.94 | 0.00 | 94 | 1011.5 |
| 20260507000251 | 12 | 283 | 0.0 | 1.6 | 0.00 | 3.94 | 0.00 | 94 | 1011.6 |
| 20260506235801 | 12 | 283 | 0.0 | 1.6 | 0.00 | 3.94 | 0.00 | 94 | 1011.6 |
| 20260506235250 | 12 | 283 | 0.0 | 0.0 | 0.00 | 3.94 | 0.00 | 94 | 1011.6 |
| 20260506234756 | 12 | 283 | 0.0 | 0.0 | 0.00 | 3.94 | 0.00 | 94 | 1011.6 |
| 20260506234254 | 12 | 283 | 0.0 | 1.6 | 0.00 | 4.22 | 0.00 | 94 | 1011.5 |
| 20260506233750 | 12 | 279 | 0.0 | 3.2 | 0.00 | 4.32 | 0.00 | 94 | 1011.5 |
| 20260506233250 | 12 | 298 | 1.6 | 3.2 | 0.00 | 4.39 | 0.00 | 94 | 1011.5 |
| 20260506232750 | 12 | 311 | 1.6 | 6.4 | 0.00 | 4.42 | 0.00 | 94 | 1011.4 |
| 20260506232250 | 12 | 313 | 1.6 | 6.4 | 0.03 | 4.42 | 0.00 | 94 | 1011.5 |
| 20260506231750 | 12 | 139 | 0.0 | 4.8 | 0.03 | 4.42 | 0.00 | 94 | 1011.5 |
| 20260506231250 | 12 | 172 | 3.2 | 8.0 | 0.05 | 4.42 | 0.00 | 94 | 1011.5 |
| 20260506230750 | 12 | 65 | 0.0 | 1.6 | 0.08 | 4.42 | 0.00 | 93 | 1011.6 |
| 20260506230254 | 12 | 9 | 0.0 | 1.6 | 0.08 | 4.42 | 0.00 | 93 | 1011.7 |
| 20260506225754 | 12 | 9 | 0.0 | 1.6 | 0.08 | 4.42 | 0.00 | 93 | 1011.6 |
| 20260506225251 | 12 | 9 | 1.6 | 3.2 | 0.08 | 4.42 | 0.00 | 93 | 1011.5 |
| 20260506224750 | 12 | 9 | 0.0 | 0.0 | 0.05 | 4.42 | 0.00 | 93 | 1011.4 |
| 20260506224253 | 12 | 9 | 0.0 | 0.0 | 0.05 | 4.42 | 0.00 | 93 | 1011.4 |
| 20260506223753 | 12 | 9 | 0.0 | 0.0 | 0.05 | 4.42 | 0.00 | 93 | 1011.4 |
| 20260506223250 | 12 | 9 | 0.0 | 3.2 | 0.05 | 4.42 | 0.00 | 93 | 1011.5 |
| 20260506222753 | 13 | 5 | 3.2 | 6.4 | 0.05 | 4.42 | 0.00 | 92 | 1011.4 |
| 20260506222250 | 13 | 320 | 1.6 | 4.8 | 0.03 | 4.42 | 0.00 | 92 | 1011.6 |
| 20260506221752 | 13 | 277 | 3.2 | 11.3 | 0.03 | 4.42 | 0.00 | 92 | 1011.5 |
| 20260506221253 | 13 | 146 | 1.6 | 6.4 | 0.00 | 4.39 | 0.00 | 92 | 1011.5 |
| 20260506220750 | 13 | 168 | 6.4 | 11.3 | 0.00 | 4.37 | 0.00 | 92 | 1011.6 |
| 20260506220250 | 13 | 184 | 1.6 | 4.8 | 0.00 | 4.37 | 0.00 | 92 | 1011.5 |
| 20260506215757 | 13 | 157 | 4.8 | 6.4 | 0.00 | 4.37 | 0.00 | 92 | 1011.5 |
| 20260506215250 | 13 | 170 | 1.6 | 4.8 | 0.00 | 4.37 | 0.00 | 92 | 1011.5 |
| 20260506214753 | 13 | 180 | 0.0 | 1.6 | 0.05 | 4.37 | 0.00 | 92 | 1011.4 |
| 20260506214253 | 13 | 180 | 0.0 | 1.6 | 0.08 | 4.37 | 0.00 | 91 | 1011.4 |
| 20260506213756 | 13 | 165 | 0.0 | 6.4 | 0.08 | 4.37 | 0.00 | 91 | 1011.4 |
| 20260506213251 | 13 | 159 | 1.6 | 6.4 | 0.08 | 4.37 | 0.00 | 91 | 1011.4 |
| 20260506212750 | 13 | 167 | 0.0 | 8.0 | 0.08 | 4.37 | 0.00 | 91 | 1011.3 |
| 20260506212251 | 13 | 135 | 0.0 | 6.4 | 0.08 | 4.37 | 0.00 | 91 | 1011.4 |
| 20260506211750 | 13 | 182 | 4.8 | 4.8 | 0.08 | 4.37 | 0.00 | 90 | 1011.4 |
| 20260506211253 | 13 | 192 | 3.2 | 6.4 | 0.08 | 4.37 | 0.00 | 90 | 1011.3 |
| 20260506210750 | 13 | 165 | 3.2 | 8.0 | 0.08 | 4.37 | 0.00 | 90 | 1011.3 |
| 20260506210300 | 13 | 152 | 1.6 | 9.7 | 0.05 | 4.34 | 0.00 | 90 | 1011.3 |
| 20260506205750 | 13 | 161 | 1.6 | 11.3 | 0.05 | 4.34 | 0.00 | 89 | 1011.2 |
| 20260506205250 | 13 | 133 | 4.8 | 9.7 | 0.05 | 4.34 | 0.00 | 89 | 1011.2 |
| 20260506204753 | 13 | 173 | 11.3 | 12.9 | 0.00 | 4.32 | 0.00 | 88 | 1011.2 |
| 20260506204250 | 14 | 163 | 6.4 | 11.3 | 0.00 | 4.29 | 0.00 | 87 | 1011.2 |
| 20260506203750 | 14 | 157 | 4.8 | 9.7 | 0.00 | 4.29 | 0.00 | 86 | 1011.2 |
| 20260506203250 | 14 | 156 | 4.8 | 11.3 | 0.00 | 4.29 | 0.00 | 86 | 1011.1 |
| 20260506202759 | 14 | 171 | 0.0 | 9.7 | 0.00 | 4.29 | 0.00 | 85 | 1011.1 |
| 20260506202250 | 14 | 151 | 8.0 | 11.3 | 0.00 | 4.29 | 0.00 | 85 | 1011.0 |
| 20260506201756 | 14 | 155 | 4.8 | 8.0 | 0.00 | 4.29 | 0.00 | 85 | 1011.0 |
| 20260506201253 | 14 | 154 | 0.0 | 6.4 | 0.00 | 4.29 | 0.00 | 84 | 1010.9 |
| 20260506200750 | 14 | 139 | 3.2 | 9.7 | 0.00 | 4.37 | 0.00 | 84 | 1010.8 |
| 20260506200253 | 14 | 142 | 0.0 | 8.0 | 0.00 | 4.55 | 0.00 | 84 | 1010.8 |
| 20260506195753 | 14 | 165 | 6.4 | 6.4 | 0.00 | 4.72 | 0.00 | 83 | 1010.7 |
| 20260506195254 | 14 | 175 | 0.0 | 9.7 | 0.00 | 4.85 | 0.00 | 83 | 1010.6 |
| 20260506194753 | 14 | 216 | 1.6 | 8.0 | 0.00 | 4.95 | 0.00 | 82 | 1010.7 |
| 20260506194250 | 14 | 156 | 4.8 | 6.4 | 0.00 | 5.00 | 0.00 | 81 | 1010.6 |
| 20260506193800 | 14 | 214 | 4.8 | 22.5 | 0.00 | 5.00 | 0.00 | 81 | 1010.4 |
| 20260506193256 | 14 | 174 | 3.2 | 12.9 | 0.00 | 5.00 | 0.00 | 81 | 1010.3 |
| 20260506192752 | 15 | 212 | 1.6 | 11.3 | 0.00 | 5.00 | 0.00 | 80 | 1010.2 |
| 20260506192253 | 15 | 135 | 3.2 | 14.5 | 0.00 | 5.00 | 0.00 | 79 | 1010.0 |
| 20260506191750 | 15 | 265 | 1.6 | 9.7 | 0.00 | 5.00 | 0.00 | 78 | 1009.9 |
| 20260506191250 | 15 | 265 | 3.2 | 16.1 | 0.00 | 5.00 | 0.00 | 78 | 1009.8 |
| 20260506190753 | 15 | 169 | 3.2 | 16.1 | 0.00 | 5.00 | 0.00 | 78 | 1009.8 |
| 20260506190250 | 15 | 211 | 1.6 | 16.1 | 0.00 | 5.00 | 0.00 | 79 | 1009.7 |
| 20260506185750 | 15 | 184 | 8.0 | 16.1 | 0.00 | 5.00 | 0.00 | 79 | 1009.7 |
| 20260506185250 | 15 | 155 | 3.2 | 19.3 | 0.00 | 5.03 | 0.00 | 79 | 1009.6 |
| 20260506184750 | 15 | 216 | 1.6 | 9.7 | 0.00 | 5.03 | 0.00 | 79 | 1009.4 |
| 20260506184256 | 15 | 171 | 0.0 | 12.9 | 0.00 | 5.03 | 0.00 | 79 | 1009.4 |
| 20260506183759 | 15 | 198 | 3.2 | 9.7 | 0.00 | 5.03 | 0.00 | 78 | 1009.3 |
| 20260506183250 | 15 | 327 | 1.6 | 14.5 | 0.00 | 5.03 | 0.00 | 78 | 1009.3 |
| 20260506182753 | 15 | 169 | 3.2 | 12.9 | 0.00 | 5.03 | 0.00 | 78 | 1009.3 |
| 20260506182251 | 15 | 148 | 6.4 | 12.9 | 0.00 | 5.05 | 0.00 | 78 | 1009.3 |
| 20260506181750 | 15 | 123 | 1.6 | 6.4 | 0.00 | 5.05 | 0.00 | 79 | 1009.2 |
| 20260506181255 | 15 | 208 | 1.6 | 4.8 | 0.00 | 5.05 | 0.00 | 79 | 1009.1 |
| 20260506180753 | 15 | 242 | 0.0 | 11.3 | 0.00 | 5.05 | 0.00 | 78 | 1009.1 |
| 20260506180250 | 15 | 263 | 1.6 | 6.4 | 0.00 | 5.05 | 0.00 | 78 | 1009.1 |
| 20260506175756 | 15 | 262 | 4.8 | 11.3 | 0.00 | 5.05 | 0.00 | 78 | 1009.0 |
| 20260506175259 | 15 | 128 | 3.2 | 16.1 | 0.00 | 5.05 | 0.00 | 77 | 1009.0 |
| 20260506174750 | 15 | 198 | 0.0 | 11.3 | 0.00 | 5.05 | 0.00 | 77 | 1008.9 |
| 20260506174250 | 15 | 216 | 1.6 | 12.9 | 0.00 | 5.05 | 0.00 | 76 | 1008.9 |
| 20260506173757 | 15 | 103 | 3.2 | 12.9 | 0.00 | 5.05 | 0.00 | 76 | 1008.8 |
| 20260506173256 | 15 | 128 | 3.2 | 16.1 | 0.00 | 5.11 | 0.00 | 75 | 1008.8 |
| 20260506172750 | 16 | 179 | 14.5 | 17.7 | 0.00 | 5.16 | 0.00 | 74 | 1008.7 |
| 20260506172301 | 16 | 141 | 3.2 | 16.1 | 0.00 | 5.21 | 0.00 | 74 | 1008.8 |
| 20260506171750 | 16 | 161 | 6.4 | 20.9 | 0.00 | 5.21 | 0.00 | 73 | 1008.8 |
| 20260506171253 | 16 | 217 | 3.2 | 14.5 | 0.00 | 5.23 | 0.00 | 75 | 1008.6 |
| 20260506170750 | 16 | 192 | 3.2 | 17.7 | 0.00 | 5.23 | 0.00 | 75 | 1008.6 |
| 20260506170253 | 16 | 38 | 3.2 | 12.9 | 0.00 | 5.23 | 0.00 | 77 | 1008.6 |
| 20260506165757 | 16 | 234 | 3.2 | 16.1 | 0.00 | 5.23 | 0.00 | 75 | 1008.6 |
| 20260506165253 | 16 | 281 | 0.0 | 9.7 | 0.00 | 5.23 | 0.00 | 78 | 1008.6 |
| 20260506164750 | 16 | 273 | 1.6 | 9.7 | 0.00 | 5.23 | 0.00 | 76 | 1008.6 |
| 20260506164250 | 16 | 230 | 9.7 | 17.7 | 0.00 | 5.26 | 0.00 | 76 | 1008.6 |
| 20260506163759 | 17 | 236 | 1.6 | 14.5 | 0.00 | 5.26 | 0.00 | 76 | 1008.7 |
| 20260506163253 | 17 | 242 | 9.7 | 24.1 | 0.00 | 5.26 | 0.00 | 75 | 1008.4 |
| 20260506162753 | 17 | 297 | 8.0 | 11.3 | 0.00 | 5.26 | 0.00 | 77 | 1008.5 |
| 20260506162250 | 17 | 190 | 6.4 | 12.9 | 0.00 | 5.26 | 0.00 | 78 | 1008.5 |
| 20260506161750 | 17 | 144 | 3.2 | 22.5 | 0.00 | 5.36 | 0.00 | 80 | 1008.5 |
| 20260506161256 | 17 | 272 | 1.6 | 16.1 | 0.00 | 5.54 | 0.00 | 82 | 1008.4 |
| 20260506160750 | 16 | 246 | 6.4 | 16.1 | 0.00 | 5.64 | 0.00 | 82 | 1008.6 |
| 20260506160253 | 16 | 247 | 4.8 | 14.5 | 0.00 | 5.66 | 0.00 | 83 | 1008.4 |
| 20260506155750 | 16 | 280 | 6.4 | 11.3 | 0.00 | 5.66 | 0.00 | 86 | 1008.6 |
| 20260506155250 | 16 | 252 | 4.8 | 14.5 | 0.00 | 5.66 | 0.00 | 85 | 1008.5 |
| 20260506154753 | 16 | 169 | 1.6 | 12.9 | 0.00 | 5.66 | 0.00 | 85 | 1008.4 |
| 20260506154253 | 16 | 92 | 3.2 | 17.7 | 0.00 | 5.66 | 0.00 | 85 | 1008.3 |
| 20260506153753 | 16 | 219 | 1.6 | 14.5 | 0.00 | 5.66 | 0.00 | 86 | 1008.3 |
| 20260506153250 | 16 | 271 | 4.8 | 22.5 | 0.00 | 5.66 | 0.00 | 88 | 1008.3 |
| 20260506152750 | 16 | 255 | 4.8 | 8.0 | 0.00 | 5.66 | 0.00 | 88 | 1008.1 |
| 20260506152259 | 16 | 190 | 6.4 | 9.7 | 0.00 | 5.66 | 0.00 | 88 | 1008.1 |
| 20260506151750 | 16 | 157 | 4.8 | 8.0 | 0.00 | 5.66 | 0.00 | 88 | 1008.1 |
| 20260506151254 | 16 | 171 | 0.0 | 16.1 | 0.00 | 5.66 | 0.00 | 88 | 1008.4 |
| 20260506150756 | 16 | 159 | 3.2 | 20.9 | 0.00 | 5.66 | 0.00 | 87 | 1008.4 |
| 20260506150250 | 16 | 270 | 12.9 | 22.5 | 0.00 | 5.66 | 0.00 | 87 | 1008.5 |
| 20260506145753 | 16 | 244 | 16.1 | 16.1 | 0.00 | 5.66 | 0.00 | 89 | 1008.3 |
| 20260506145250 | 16 | 231 | 1.6 | 16.1 | 0.00 | 5.66 | 0.00 | 88 | 1008.4 |
| 20260506144753 | 16 | 215 | 1.6 | 11.3 | 0.00 | 5.66 | 0.00 | 89 | 1008.2 |
| 20260506144250 | 16 | 180 | 1.6 | 11.3 | 0.00 | 5.66 | 0.00 | 88 | 1008.4 |
| 20260506143753 | 16 | 174 | 1.6 | 16.1 | 0.00 | 5.66 | 0.00 | 87 | 1008.2 |
| 20260506143250 | 16 | 184 | 3.2 | 9.7 | 0.00 | 5.66 | 0.00 | 89 | 1008.3 |
| 20260506142750 | 16 | 260 | 4.8 | 14.5 | 0.00 | 5.66 | 0.00 | 88 | 1008.4 |
| 20260506142250 | 16 | 192 | 0.0 | 14.5 | 0.00 | 5.66 | 0.00 | 89 | 1008.5 |
| 20260506141750 | 16 | 211 | 1.6 | 8.0 | 0.03 | 5.71 | 0.00 | 90 | 1008.5 |
| 20260506141250 | 15 | 165 | 11.3 | 17.7 | 0.05 | 5.71 | 0.00 | 90 | 1008.5 |
| 20260506140756 | 15 | 118 | 3.2 | 17.7 | 0.15 | 5.71 | 0.00 | 89 | 1008.7 |
| 20260506140250 | 15 | 213 | 0.0 | 24.1 | 0.36 | 5.71 | 0.00 | 89 | 1008.7 |
| 20260506135753 | 15 | 177 | 9.7 | 17.7 | 0.41 | 5.71 | 0.00 | 89 | 1008.7 |
| 20260506135256 | 14 | 188 | 14.5 | 14.5 | 0.46 | 5.71 | 0.00 | 89 | 1008.8 |
| 20260506134751 | 14 | 161 | 6.4 | 12.9 | 0.46 | 5.71 | 0.00 | 89 | 1008.8 |
| 20260506134259 | 14 | 167 | 6.4 | 16.1 | 0.46 | 5.71 | 0.00 | 88 | 1008.8 |
| 20260506133750 | 15 | 163 | 11.3 | 22.5 | 0.46 | 5.71 | 0.00 | 88 | 1008.8 |
| 20260506133253 | 15 | 233 | 3.2 | 8.0 | 0.46 | 5.71 | 0.00 | 90 | 1008.9 |
| 20260506132750 | 15 | 224 | 4.8 | 11.3 | 0.46 | 5.71 | 0.00 | 89 | 1008.9 |
| 20260506132250 | 15 | 132 | 3.2 | 14.5 | 0.46 | 5.71 | 0.00 | 89 | 1008.7 |
| 20260506131756 | 15 | 215 | 0.0 | 12.9 | 0.43 | 5.69 | 0.00 | 88 | 1008.7 |
| 20260506131250 | 15 | 246 | 8.0 | 25.7 | 0.41 | 5.66 | 0.00 | 87 | 1008.7 |
| 20260506130753 | 15 | 169 | 8.0 | 14.5 | 0.30 | 5.56 | 0.00 | 85 | 1008.8 |
| 20260506130250 | 16 | 161 | 1.6 | 29.0 | 0.10 | 5.36 | 0.00 | 85 | 1008.8 |
| 20260506125753 | 17 | 270 | 20.9 | 25.7 | 0.05 | 5.33 | 0.00 | 84 | 1008.7 |
| 20260506125250 | 17 | 265 | 17.7 | 24.1 | 0.00 | 5.28 | 0.00 | 83 | 1008.2 |
| 20260506124817 | 17 | 322 | 4.8 | 22.5 | 0.00 | 5.33 | 0.00 | 82 | 1008.0 |
| 20260506124250 | 17 | 188 | 8.0 | 22.5 | 0.00 | 5.36 | 0.00 | 82 | 1008.0 |
| 20260506123750 | 17 | 119 | 3.2 | 19.3 | 0.00 | 5.36 | 0.00 | 82 | 1008.2 |
| 20260506123256 | 17 | 187 | 6.4 | 14.5 | 0.00 | 5.36 | 0.00 | 81 | 1008.1 |
| 20260506122750 | 18 | 173 | 3.2 | 27.4 | 0.00 | 5.38 | 0.00 | 81 | 1008.0 |
| 20260506122250 | 17 | 162 | 17.7 | 25.7 | 0.00 | 5.38 | 0.00 | 81 | 1007.8 |
| 20260506121750 | 17 | 181 | 12.9 | 29.0 | 0.00 | 5.38 | 0.00 | 81 | 1008.0 |
| 20260506121253 | 17 | 181 | 8.0 | 20.9 | 0.00 | 5.38 | 0.00 | 83 | 1008.2 |
| 20260506120753 | 17 | 238 | 4.8 | 32.2 | 0.00 | 5.38 | 0.00 | 82 | 1007.8 |
| 20260506120253 | 17 | 197 | 8.0 | 24.1 | 0.00 | 5.38 | 0.00 | 82 | 1008.1 |
| 20260506115753 | 17 | 240 | 3.2 | 32.2 | 0.00 | 5.38 | 0.00 | 81 | 1008.0 |
| 20260506115253 | 17 | 183 | 1.6 | 37.0 | 0.00 | 5.41 | 0.00 | 83 | 1008.1 |
| 20260506114753 | 17 | 183 | 17.7 | 22.5 | 0.00 | 5.41 | 0.00 | 83 | 1008.1 |
| 20260506114250 | 17 | 173 | 3.2 | 25.7 | 0.00 | 5.41 | 0.00 | 84 | 1008.3 |
| 20260506113756 | 17 | 276 | 6.4 | 22.5 | 0.00 | 5.44 | 0.00 | 84 | 1008.2 |
| 20260506113259 | 17 | 171 | 9.7 | 20.9 | 0.00 | 5.44 | 0.00 | 84 | 1008.1 |
| 20260506112756 | 16 | 236 | 6.4 | 24.1 | 0.00 | 5.46 | 0.00 | 85 | 1008.1 |
| 20260506112253 | 16 | 227 | 3.2 | 33.8 | 0.00 | 5.51 | 0.00 | 85 | 1008.2 |
| 20260506111750 | 16 | 192 | 11.3 | 24.1 | 0.00 | 5.56 | 0.00 | 84 | 1008.1 |
| 20260506111250 | 16 | 184 | 11.3 | 24.1 | 0.00 | 5.64 | 0.00 | 84 | 1008.3 |
| 20260506110750 | 16 | 148 | 8.0 | 24.1 | 0.00 | 5.84 | 0.00 | 83 | 1008.0 |
| 20260506110257 | 17 | 127 | 8.0 | 25.7 | 0.00 | 6.05 | 0.00 | 83 | 1008.3 |
| 20260506105751 | 17 | 123 | 4.8 | 30.6 | 0.00 | 6.05 | 0.00 | 83 | 1008.4 |
| 20260506105256 | 17 | 145 | 19.3 | 19.3 | 0.00 | 6.05 | 0.00 | 83 | 1008.4 |
| 20260506104750 | 17 | 251 | 4.8 | 32.2 | 0.00 | 6.05 | 0.00 | 83 | 1008.5 |
| 20260506104250 | 17 | 185 | 11.3 | 17.7 | 0.00 | 6.05 | 0.00 | 84 | 1008.5 |
| 20260506103750 | 17 | 159 | 8.0 | 22.5 | 0.00 | 6.05 | 0.00 | 85 | 1008.5 |
| 20260506103250 | 17 | 86 | 8.0 | 20.9 | 0.00 | 6.05 | 0.00 | 84 | 1008.7 |
| 20260506102751 | 16 | 279 | 9.7 | 33.8 | 0.00 | 6.05 | 0.00 | 84 | 1008.8 |
| 20260506102253 | 16 | 158 | 8.0 | 27.4 | 0.00 | 6.05 | 0.00 | 84 | 1008.7 |
| 20260506101750 | 16 | 273 | 19.3 | 27.4 | 0.00 | 6.05 | 0.00 | 84 | 1008.5 |
| 20260506101251 | 16 | 236 | 4.8 | 37.0 | 0.00 | 6.05 | 0.00 | 84 | 1008.7 |
| 20260506100753 | 16 | 150 | 14.5 | 27.4 | 0.00 | 6.07 | 0.00 | 85 | 1008.6 |
| 20260506100253 | 16 | 169 | 8.0 | 30.6 | 0.00 | 6.10 | 0.00 | 86 | 1008.7 |
| 20260506095750 | 16 | 129 | 6.4 | 25.7 | 0.00 | 6.10 | 0.00 | 87 | 1008.8 |
| 20260506095254 | 15 | 217 | 16.1 | 32.2 | 0.00 | 6.12 | 0.00 | 87 | 1008.8 |
| 20260506094750 | 15 | 246 | 16.1 | 19.3 | 0.00 | 6.20 | 0.00 | 88 | 1008.8 |
| 20260506094250 | 15 | 103 | 9.7 | 32.2 | 0.00 | 6.22 | 0.00 | 89 | 1008.8 |
| 20260506093759 | 15 | 157 | 1.6 | 27.4 | 0.00 | 6.50 | 0.00 | 89 | 1008.8 |
| 20260506093253 | 15 | 157 | 16.1 | 24.1 | 0.00 | 6.58 | 0.00 | 90 | 1008.8 |
| 20260506092759 | 15 | 203 | 20.9 | 35.4 | 0.00 | 6.58 | 0.00 | 91 | 1009.0 |
| 20260506092250 | 15 | 168 | 1.6 | 24.1 | 0.00 | 6.58 | 0.00 | 91 | 1008.8 |
| 20260506091751 | 15 | 207 | 11.3 | 30.6 | 0.00 | 6.58 | 0.00 | 91 | 1008.5 |
| 20260506091256 | 15 | 179 | 3.2 | 20.9 | 0.00 | 6.58 | 0.00 | 92 | 1008.7 |
| 20260506090753 | 15 | 150 | 17.7 | 33.8 | 0.00 | 6.58 | 0.00 | 93 | 1008.7 |
| 20260506090250 | 15 | 222 | 12.9 | 29.0 | 0.00 | 6.58 | 0.00 | 93 | 1008.7 |
| 20260506085754 | 15 | 193 | 14.5 | 20.9 | 0.00 | 6.58 | 0.00 | 94 | 1008.8 |
| 20260506085253 | 15 | 201 | 11.3 | 14.5 | 0.00 | 6.58 | 0.00 | 94 | 1008.8 |
| 20260506084755 | 15 | 170 | 0.0 | 14.5 | 0.00 | 6.58 | 0.00 | 94 | 1008.8 |
| 20260506084256 | 15 | 172 | 3.2 | 24.1 | 0.00 | 6.58 | 0.00 | 94 | 1008.8 |
| 20260506083750 | 15 | 250 | 8.0 | 22.5 | 0.00 | 6.60 | 0.00 | 94 | 1008.9 |
| 20260506083250 | 15 | 163 | 1.6 | 16.1 | 0.00 | 6.65 | 0.00 | 93 | 1009.0 |
| 20260506082750 | 15 | 173 | 9.7 | 14.5 | 0.00 | 6.71 | 0.00 | 93 | 1008.9 |
| 20260506082256 | 15 | 84 | 4.8 | 27.4 | 0.00 | 6.76 | 0.00 | 93 | 1008.8 |
| 20260506081753 | 15 | 298 | 6.4 | 22.5 | 0.00 | 6.76 | 0.00 | 93 | 1008.7 |
| 20260506081253 | 15 | 241 | 8.0 | 33.8 | 0.00 | 6.76 | 0.00 | 93 | 1008.5 |
| 20260506080756 | 15 | 205 | 9.7 | 20.9 | 0.00 | 6.76 | 0.00 | 93 | 1008.6 |
| 20260506080250 | 15 | 65 | 3.2 | 12.9 | 0.00 | 6.76 | 0.00 | 94 | 1008.8 |
| 20260506073250 | 14 | 164 | 9.7 | 29.0 | 0.00 | 6.76 | 0.00 | 94 | 1008.5 |
| 20260506072750 | 14 | 161 | 8.0 | 16.1 | 0.00 | 6.76 | 0.00 | 94 | 1008.6 |
| 20260506072259 | 14 | 198 | 3.2 | 27.4 | 0.00 | 6.76 | 0.00 | 94 | 1008.6 |
| 20260506071756 | 14 | 229 | 4.8 | 22.5 | 0.00 | 6.78 | 0.00 | 94 | 1008.6 |
| 20260506071253 | 14 | 170 | 16.1 | 19.3 | 0.00 | 6.78 | 0.00 | 94 | 1008.5 |
| 20260506070753 | 14 | 124 | 4.8 | 24.1 | 0.05 | 6.81 | 0.00 | 94 | 1008.5 |